• In Germany
  • List of Countries
  • For 7 days
  • Water Temperature
  • Satellite Maps
  • Weather Map
  • Weather Widgets
  • user-avatar
    Login

    Hourly Weather Bururi

    Today, 20 August, Monday

    Time Temperature Precipitation Wind Pressure Humidity
    00:00 +19°C° 0.1 mm 2 mps 618 mmHg 55%
    01:00 +19°C° 0.1 mm 2 mps 617 mmHg 56%
    02:00 +18°C° 0 mm 2 mps 617 mmHg 61%
    03:00 +18°C° 0.1 mm 2 mps 617 mmHg 62%
    04:00 +18°C° 0.1 mm 2 mps 617 mmHg 62%
    05:00 +18°C° 0.1 mm 1 mps 617 mmHg 63%
    06:00 +18°C° 0 mm 2 mps 618 mmHg 59%
    07:00 +19°C° 0 mm 2 mps 618 mmHg 55%
    08:00 +20°C° 0 mm 2 mps 619 mmHg 51%
    09:00 +23°C° 0 mm 2 mps 619 mmHg 47%
    10:00 +24°C° 0 mm 3 mps 620 mmHg 43%
    11:00 +25°C° 0 mm 3 mps 620 mmHg 40%
    12:00 +25°C° 0 mm 3 mps 619 mmHg 39%
    13:00 +26°C° 0 mm 3 mps 619 mmHg 38%
    14:00 +26°C° 0 mm 2 mps 618 mmHg 39%
    15:00 +25°C° 0.1 mm 2 mps 618 mmHg 40%
    16:00 +25°C° 0.1 mm 2 mps 618 mmHg 42%
    17:00 +24°C° 0.1 mm 2 mps 618 mmHg 43%
    18:00 +23°C° 0.1 mm 2 mps 617 mmHg 48%
    19:00 +21°C° 0.1 mm 2 mps 617 mmHg 53%
    20:00 +20°C° 0.1 mm 1 mps 617 mmHg 58%
    21:00 +20°C° 0.1 mm 1 mps 617 mmHg 59%
    22:00 +19°C° 0.1 mm 2 mps 618 mmHg 61%
    23:00 +19°C° 0.1 mm 2 mps 618 mmHg 62%

    Tomorrow, 21 August, Tuesday

    Time Temperature Precipitation Wind Pressure Humidity
    00:00 +18°C° 0 mm 2 mps 617 mmHg 63%
    01:00 +18°C° 0 mm 2 mps 617 mmHg 64%
    02:00 +17°C° 0 mm 2 mps 617 mmHg 66%
    03:00 +17°C° 0 mm 2 mps 617 mmHg 65%
    04:00 +17°C° 0 mm 2 mps 617 mmHg 65%
    05:00 +17°C° 0 mm 2 mps 617 mmHg 65%
    06:00 +18°C° 0 mm 2 mps 618 mmHg 61%
    07:00 +19°C° 0 mm 2 mps 618 mmHg 56%
    08:00 +20°C° 0 mm 2 mps 619 mmHg 52%
    09:00 +23°C° 0 mm 2 mps 619 mmHg 47%
    10:00 +24°C° 0 mm 2 mps 620 mmHg 42%
    11:00 +26°C° 0 mm 3 mps 620 mmHg 37%
    12:00 +26°C° 0 mm 2 mps 620 mmHg 36%
    13:00 +26°C° 0 mm 2 mps 619 mmHg 36%
    14:00 +26°C° 0 mm 2 mps 618 mmHg 36%
    15:00 +26°C° 0 mm 2 mps 618 mmHg 37%
    16:00 +25°C° 0 mm 2 mps 618 mmHg 38%
    17:00 +25°C° 0 mm 2 mps 617 mmHg 40%
    18:00 +23°C° 0 mm 2 mps 617 mmHg 43%
    19:00 +21°C° 0 mm 2 mps 617 mmHg 47%
    20:00 +21°C° 0 mm 1 mps 617 mmHg 51%
    21:00 +20°C° 0 mm 2 mps 618 mmHg 52%
    22:00 +19°C° 0 mm 2 mps 618 mmHg 54%
    23:00 +19°C° 0 mm 2 mps 618 mmHg 55%

    Day after tomorrow, 22 August, Wednesday

    Time Temperature Precipitation Wind Pressure Humidity
    00:00 +19°C° 0 mm 2 mps 618 mmHg 55%
    01:00 +18°C° 0 mm 2 mps 617 mmHg 56%
    02:00 +18°C° 0 mm 2 mps 617 mmHg 56%
    03:00 +18°C° 0 mm 2 mps 617 mmHg 57%
    04:00 +18°C° 0 mm 2 mps 617 mmHg 57%
    05:00 +17°C° 0 mm 2 mps 617 mmHg 58%
    06:00 +20°C° 0 mm 1 mps 617 mmHg 54%
    07:00 +21°C° 0 mm 1 mps 618 mmHg 50%
    08:00 +22°C° 0 mm 1 mps 619 mmHg 46%
    09:00 +23°C° 0 mm 2 mps 619 mmHg 43%
    10:00 +25°C° 0 mm 2 mps 620 mmHg 40%
    11:00 +26°C° 0 mm 2 mps 620 mmHg 37%
    12:00 +26°C° 0 mm 2 mps 619 mmHg 35%
    13:00 +27°C° 0 mm 2 mps 619 mmHg 34%
    14:00 +28°C° 0 mm 2 mps 618 mmHg 33%
    15:00 +27°C° 0.1 mm 2 mps 618 mmHg 34%
    16:00 +26°C° 0.1 mm 2 mps 617 mmHg 36%
    17:00 +26°C° 0.1 mm 2 mps 617 mmHg 37%
    18:00 +24°C° 0 mm 2 mps 617 mmHg 41%
    19:00 +23°C° 0 mm 2 mps 617 mmHg 45%
    20:00 +21°C° 0 mm 1 mps 617 mmHg 50%
    21:00 +20°C° 0 mm 2 mps 617 mmHg 51%
    22:00 +20°C° 0 mm 2 mps 618 mmHg 52%
    23:00 +20°C° 0 mm 2 mps 618 mmHg 52%

    23 August, Thursday

    Time Temperature Precipitation Wind Pressure Humidity
    00:00 +19°C° 0 mm 2 mps 618 mmHg 53%
    01:00 +19°C° 0 mm 2 mps 617 mmHg 53%
    02:00 +19°C° 0 mm 2 mps 617 mmHg 54%
    03:00 +19°C° 0 mm 2 mps 617 mmHg 54%
    04:00 +19°C° 0 mm 2 mps 617 mmHg 54%
    05:00 +19°C° 0 mm 2 mps 617 mmHg 54%
    06:00 +19°C° 0 mm 2 mps 617 mmHg 52%
    07:00 +20°C° 0 mm 2 mps 618 mmHg 50%
    08:00 +21°C° 0 mm 2 mps 619 mmHg 48%
    09:00 +23°C° 0 mm 2 mps 619 mmHg 44%
    10:00 +24°C° 0 mm 2 mps 619 mmHg 41%
    11:00 +26°C° 0 mm 2 mps 619 mmHg 37%
    12:00 +26°C° 0 mm 2 mps 619 mmHg 36%
    13:00 +26°C° 0 mm 3 mps 618 mmHg 35%
    14:00 +27°C° 0 mm 3 mps 618 mmHg 34%
    15:00 +26°C° 0 mm 3 mps 617 mmHg 35%
    16:00 +26°C° 0 mm 2 mps 617 mmHg 37%
    17:00 +25°C° 0 mm 2 mps 617 mmHg 38%
    18:00 +24°C° 0 mm 2 mps 617 mmHg 42%
    19:00 +21°C° 0 mm 2 mps 617 mmHg 46%
    20:00 +21°C° 0 mm 1 mps 617 mmHg 50%
    21:00 +19°C° 0 mm 2 mps 617 mmHg 51%
    22:00 +19°C° 0 mm 2 mps 617 mmHg 52%
    23:00 +19°C° 0 mm 2 mps 617 mmHg 53%

    24 August, Friday

    Time Temperature Precipitation Wind Pressure Humidity
    00:00 +18°C° 0 mm 2 mps 617 mmHg 54%
    01:00 +18°C° 0 mm 2 mps 616 mmHg 54%
    02:00 +18°C° 0 mm 2 mps 616 mmHg 54%
    03:00 +18°C° 0 mm 2 mps 616 mmHg 55%
    04:00 +17°C° 0 mm 2 mps 616 mmHg 55%
    05:00 +17°C° 0 mm 2 mps 616 mmHg 56%
    06:00 +18°C° 0 mm 2 mps 617 mmHg 52%
    07:00 +20°C° 0 mm 2 mps 618 mmHg 47%
    08:00 +23°C° 0 mm 2 mps 619 mmHg 43%
    09:00 +24°C° 0 mm 2 mps 619 mmHg 40%
    10:00 +25°C° 0 mm 3 mps 619 mmHg 36%
    11:00 +26°C° 0 mm 3 mps 620 mmHg 33%
    12:00 +27°C° 0 mm 3 mps 619 mmHg 32%
    13:00 +27°C° 0 mm 3 mps 618 mmHg 31%
    14:00 +28°C° 0 mm 3 mps 618 mmHg 30%
    15:00 +27°C° 0 mm 3 mps 617 mmHg 32%
    16:00 +26°C° 0 mm 3 mps 617 mmHg 33%
    17:00 +25°C° 0 mm 2 mps 616 mmHg 35%
    18:00 +24°C° 0 mm 2 mps 616 mmHg 39%
    19:00 +23°C° 0 mm 2 mps 617 mmHg 44%
    20:00 +20°C° 0 mm 2 mps 617 mmHg 48%
    21:00 +20°C° 0 mm 2 mps 617 mmHg 49%
    22:00 +20°C° 0 mm 2 mps 617 mmHg 49%
    23:00 +19°C° 0 mm 2 mps 617 mmHg 50%

    25 August, Saturday

    Time Temperature Precipitation Wind Pressure Humidity
    00:00 +19°C° 0 mm 2 mps 617 mmHg 50%
    01:00 +19°C° 0 mm 2 mps 616 mmHg 50%
    02:00 +19°C° 0 mm 2 mps 616 mmHg 50%
    03:00 +18°C° 0 mm 2 mps 616 mmHg 52%
    04:00 +18°C° 0 mm 2 mps 616 mmHg 54%
    05:00 +17°C° 0 mm 2 mps 617 mmHg 55%
    06:00 +19°C° 0 mm 2 mps 618 mmHg 51%
    07:00 +20°C° 0 mm 2 mps 619 mmHg 46%
    08:00 +21°C° 0 mm 2 mps 620 mmHg 42%
    09:00 +24°C° 0 mm 2 mps 620 mmHg 38%
    10:00 +25°C° 0 mm 3 mps 620 mmHg 34%
    11:00 +27°C° 0 mm 3 mps 620 mmHg 30%
    12:00 +27°C° 0 mm 3 mps 619 mmHg 29%
    13:00 +28°C° 0 mm 3 mps 618 mmHg 28%
    14:00 +28°C° 0 mm 3 mps 618 mmHg 27%
    15:00 +28°C° 0 mm 3 mps 617 mmHg 29%
    16:00 +27°C° 0 mm 3 mps 617 mmHg 30%
    17:00 +26°C° 0 mm 2 mps 616 mmHg 32%
    18:00 +25°C° 0 mm 2 mps 617 mmHg 36%
    19:00 +23°C° 0 mm 2 mps 617 mmHg 41%
    20:00 +21°C° 0 mm 1 mps 617 mmHg 45%
    21:00 +20°C° 0 mm 2 mps 617 mmHg 46%
    22:00 +20°C° 0 mm 2 mps 617 mmHg 47%
    23:00 +20°C° 0 mm 2 mps 617 mmHg 49%
    Show more